Theta_e
311 315 337 345 351 350 349 350 352 352 353 355 355 356 354 356 355 354 350 349 349 350 347 350 349 352 345 346 342 338 333 330
308 309 311 317 346 348 348 349 350 350 354 353 353 353 353 352 353 352 349 346 345 346 345 344 344 343 340 339 336 334 331 328
308 309 311 314 327 345 347 348 348 348 348 352 351 351 352 352 352 352 350 347 345 346 344 343 343 341 339 335 334 332 330 328
308 307 310 310 334 342 346 346 346 343 343 348 349 350 351 351 351 350 351 347 346 345 344 342 341 340 339 334 331 330 328 326
311 311 309 314 320 343 345 346 341 335 339 347 347 347 349 349 350 351 351 350 347 346 342 342 342 340 337 334 330 328 326 328
308 310 315 318 326 337 340 345 340 333 338 347 348 344 343 347 347 349 351 352 350 345 344 341 341 339 336 334 331 327 328 327
307 309 313 316 321 323 329 333 337 338 345 350 349 350 346 344 344 344 347 349 350 347 344 344 340 339 336 333 329 325 325 330
309 310 309 312 313 313 314 318 325 324 325 335 347 346 349 346 346 343 344 344 345 345 345 342 341 338 337 332 332 330 328 329
310 314 315 318 320 321 321 323 322 324 326 327 334 340 343 344 344 346 344 343 344 342 344 343 341 339 338 335 334 333 331 329
312 312 313 313 314 316 318 320 320 323 326 328 332 330 335 343 346 346 345 344 343 342 341 342 343 341 339 335 334 330 331 331
308 310 310 311 313 317 317 316 317 318 322 321 321 322 323 326 331 337 342 344 345 344 344 342 343 343 340 337 335 334 330 328
307 307 308 311 312 317 316 316 316 320 319 317 318 318 316 320 322 329 333 338 340 344 345 344 343 344 342 340 338 336 333 329
305 307 308 309 310 315 316 313 316 319 316 317 317 316 318 320 321 321 322 327 336 341 342 343 343 342 342 342 339 335 335 334
305 307 307 308 309 309 309 310 312 315 318 316 315 314 314 315 317 317 320 323 328 333 339 341 340 341 341 342 340 338 335 335
304 303 304 304 306 308 309 308 308 310 313 315 314 314 314 315 317 317 319 322 325 328 333 338 340 340 341 342 339 338 336 335
303 304 304 304 305 305 307 308 307 308 311 312 312 315 313 316 317 320 320 322 323 326 330 334 339 340 339 338 339 339 338 336
300 302 301 301 304 305 307 307 307 307 308 310 312 312 311 313 316 318 319 320 324 326 328 331 334 336 337 336 335 336 332 327
299 301 302 303 303 304 305 305 305 305 306 306 307 308 310 314 315 315 316 318 321 321 322 324 326 329 329 329 329 330 329 328
299 300 300 301 302 303 302 303 303 303 304 304 304 305 306 308 312 314 315 317 318 318 319 321 323 325 324 321 322 324 320 321
298 298 300 300 301 302 302 302 302 302 302 302 302 303 303 304 305 307 310 313 317 317 318 319 321 324 323 320 320 322 317 317
Wind_Speed
11 7 15 18 14 10 12 11 12 14 10 8 7 7 8 7 8 8 6 6 5 5 3 6 6 13 5 9 7 5 7 5
2 8 8 8 13 14 12 12 14 13 9 10 10 9 9 9 10 10 7 5 6 6 5 7 6 5 7 6 5 6 7 7
2 3 7 7 11 14 15 14 14 15 13 9 8 8 8 10 10 12 9 8 8 7 7 7 8 8 8 8 7 7 8 9
2 5 7 7 7 16 15 16 11 6 7 9 8 8 9 8 9 11 14 10 9 8 7 8 9 9 8 7 9 9 10 10
1 6 6 6 6 8 11 11 6 2 3 6 7 7 8 9 8 11 13 12 10 10 8 9 9 8 9 7 8 5 4 4
5 5 7 9 9 7 6 7 8 5 6 5 4 4 5 7 7 8 13 15 13 11 9 9 9 8 7 6 6 7 8 7
7 7 9 9 11 11 9 9 10 11 8 5 5 6 4 5 4 5 10 12 14 12 11 10 8 9 7 7 6 5 6 8
9 9 6 4 6 6 6 6 8 8 5 5 1 1 3 3 4 5 7 6 11 9 9 8 7 7 9 7 10 6 7 9
6 9 12 9 9 9 9 9 5 2 4 3 3 3 3 4 4 5 7 7 9 8 10 10 9 12 12 11 10 11 10 5
7 9 9 9 8 8 8 8 8 5 4 2 2 0 2 3 4 5 6 6 9 11 11 13 12 12 15 11 12 7 8 8
7 9 8 8 8 7 8 7 7 5 5 3 3 3 3 3 2 2 5 8 8 10 13 13 16 12 12 14 15 18 14 6
6 8 8 9 7 8 7 6 5 4 4 4 3 2 2 3 3 3 5 7 11 12 12 13 14 12 15 13 13 15 17 14
8 8 8 6 7 7 6 6 5 4 3 4 3 3 4 4 4 7 6 6 9 13 13 14 15 12 17 16 13 14 15 15
7 7 6 6 5 7 7 7 4 4 4 4 5 6 6 4 4 5 5 7 7 11 12 12 15 15 16 17 16 17 15 15
5 5 3 3 4 3 4 4 2 4 5 6 6 7 6 7 7 5 5 6 7 11 12 10 11 15 16 16 18 18 15 14
7 8 8 6 7 6 5 6 7 8 8 9 8 8 5 5 6 5 5 5 6 10 12 13 13 14 14 15 16 15 14 14
9 7 5 5 6 7 7 5 7 8 8 6 7 7 7 7 8 6 5 6 6 7 11 15 14 14 14 11 10 14 11 6
5 4 6 8 7 9 11 10 11 11 13 12 10 11 12 10 7 8 7 7 6 7 7 11 16 14 11 9 8 7 9 7
8 8 7 7 7 8 7 8 8 8 7 8 9 10 11 10 9 9 9 8 8 7 7 8 12 14 8 7 8 9 8 9
8 7 7 7 7 6 5 4 5 4 5 7 10 11 12 11 10 10 9 11 12 8 7 8 9 11 8 8 9 10 11 8
Wind_Direction
112 153 168 177 170 179 183 175 171 171 177 173 176 176 180 186 191 189 193 188 193 198 201 203 206 207 205 208 209 209 210 212
75 134 155 146 176 181 174 181 184 189 171 178 184 179 182 181 187 192 187 189 201 203 202 205 200 207 210 208 209 212 220 223
25 344 130 159 169 178 176 178 193 197 181 184 173 183 189 190 179 184 194 209 203 204 211 205 205 203 203 211 211 214 222 224
98 18 344 120 157 172 175 193 193 195 183 195 179 184 185 200 188 186 198 200 205 206 211 226 216 213 211 216 221 216 223 212
150 133 81 59 171 147 180 186 175 203 220 198 204 194 184 192 199 193 196 205 211 212 209 208 222 234 225 218 226 233 237 261
204 193 119 115 110 150 168 194 207 216 228 189 190 192 206 212 201 199 201 204 209 208 217 217 216 215 218 230 234 238 229 221
269 256 148 146 143 146 164 190 211 222 208 206 195 191 198 214 242 219 221 211 211 213 217 220 202 208 212 215 218 205 234 241
235 236 172 118 56 64 58 33 29 28 9 349 320 217 221 172 213 221 225 226 225 225 230 227 212 203 212 207 217 218 227 235
41 78 100 93 65 68 73 106 128 89 47 41 21 1 330 313 262 250 235 218 236 232 238 236 227 228 220 209 216 214 230 201
51 85 90 92 107 108 94 92 91 85 97 118 102 83 306 271 293 279 270 242 231 225 221 238 229 232 234 212 207 214 229 191
121 90 95 93 89 94 88 81 78 73 80 47 22 21 12 5 300 272 274 273 251 232 235 233 240 232 229 227 218 218 230 216
100 100 97 109 112 115 103 90 73 78 78 86 110 170 221 235 249 257 277 277 281 271 245 242 235 241 242 231 233 225 221 226
121 124 123 129 126 127 127 121 124 165 159 154 153 211 238 255 277 290 285 272 267 267 264 254 246 233 244 244 229 228 226 225
128 139 128 138 150 152 158 151 168 176 180 191 210 230 254 277 275 285 283 296 289 279 263 257 259 245 239 243 241 236 227 228
126 125 129 159 185 199 190 174 235 256 237 231 235 235 238 256 266 255 279 288 296 290 279 260 258 260 242 238 240 239 226 229
191 199 201 215 220 221 215 219 231 231 233 237 235 235 229 232 230 245 254 244 271 294 291 277 265 261 266 253 245 246 238 230
219 231 232 241 218 230 221 252 280 297 287 271 255 246 242 239 246 238 241 258 263 281 298 292 273 263 262 262 258 257 238 195
280 341 18 28 38 49 51 42 37 23 19 19 5 347 338 317 294 260 250 256 259 273 285 292 286 270 249 237 233 216 214 227
72 61 52 61 51 44 40 31 19 7 1 346 341 332 332 333 327 314 298 282 265 265 267 279 284 285 255 230 215 201 180 179
66 57 53 41 35 27 20 357 345 319 307 316 315 309 304 302 302 304 306 310 299 273 266 268 277 282 250 229 213 191 172 179